When you browse on this site, cookies collect data to enhance your experience and personalize the content and advertising you see.
Visit our Privacy Policy to learn more. By continuing to use the site, you agree to this use of cookies and data.
  • In United Kingdom
  • List of Countries
  • For 7 days
  • Water Temperature
  • Satellite Maps
  • Weather Map
  • Weather Widgets
  • user-avatar
    Login

    Hourly Weather Ayteke

    Today, 17 January, Thursday

    Time Temperature Precipitation Wind Pressure Humidity
    00:00 +1°C° 0 mm 6 mps 755 mmHg 76%
    01:00 +1°C° 0 mm 6 mps 755 mmHg 75%
    02:00 +1°C° 0 mm 6 mps 754 mmHg 75%
    03:00 +1°C° 0 mm 6 mps 754 mmHg 74%
    04:00 +1°C° 0 mm 6 mps 753 mmHg 75%
    05:00 +1°C° 0 mm 6 mps 753 mmHg 75%
    06:00 +1°C° 0 mm 6 mps 753 mmHg 76%
    07:00 +1°C° 0 mm 5 mps 752 mmHg 77%
    08:00 +2°C° 0 mm 6 mps 752 mmHg 73%
    09:00 +4°C° 0 mm 6 mps 751 mmHg 69%
    10:00 +5°C° 0 mm 6 mps 751 mmHg 65%
    11:00 +8°C° 0 mm 6 mps 750 mmHg 62%
    12:00 +9°C° 0 mm 6 mps 750 mmHg 59%
    13:00 +10°C° 0 mm 6 mps 749 mmHg 56%
    14:00 +10°C° 0 mm 6 mps 748 mmHg 56%
    15:00 +10°C° 0 mm 5 mps 748 mmHg 55%
    16:00 +10°C° 0 mm 5 mps 747 mmHg 54%
    17:00 +9°C° 0 mm 5 mps 747 mmHg 56%
    18:00 +8°C° 0 mm 5 mps 747 mmHg 58%
    19:00 +7°C° 0 mm 4 mps 746 mmHg 59%
    20:00 +7°C° 0 mm 4 mps 746 mmHg 58%
    21:00 +7°C° 0 mm 4 mps 745 mmHg 57%
    22:00 +6°C° 0 mm 5 mps 745 mmHg 56%
    23:00 +6°C° 0 mm 5 mps 744 mmHg 56%

    Tomorrow, 18 January, Friday

    Time Temperature Precipitation Wind Pressure Humidity
    00:00 +6°C° 0 mm 5 mps 743 mmHg 56%
    01:00 +6°C° 0 mm 5 mps 743 mmHg 57%
    02:00 +6°C° 0 mm 4 mps 742 mmHg 56%
    03:00 +6°C° 0 mm 4 mps 742 mmHg 55%
    04:00 +6°C° 0 mm 4 mps 741 mmHg 55%
    05:00 +6°C° 0 mm 4 mps 741 mmHg 55%
    06:00 +5°C° 0 mm 5 mps 741 mmHg 55%
    07:00 +5°C° 0 mm 5 mps 741 mmHg 55%
    08:00 +5°C° 0 mm 5 mps 741 mmHg 55%
    09:00 +6°C° 0 mm 5 mps 741 mmHg 55%
    10:00 +5°C° 0 mm 6 mps 742 mmHg 55%
    11:00 +4°C° 2.8 mm 6 mps 742 mmHg 64%
    12:00 +3°C° 2.8 mm 6 mps 742 mmHg 74%
    13:00 +2°C° 2.8 mm 6 mps 742 mmHg 83%
    14:00 +2°C° 0.4 mm 7 mps 742 mmHg 83%
    15:00 0°C° 0.4 mm 7 mps 743 mmHg 84%
    16:00 0°C° 0.4 mm 7 mps 743 mmHg 84%
    17:00 0°C° 0.3 mm 7 mps 744 mmHg 86%
    18:00 -1°C° 0.3 mm 8 mps 744 mmHg 87%
    19:00 -1°C° 0.3 mm 8 mps 745 mmHg 88%
    20:00 -1°C° 0.3 mm 9 mps 745 mmHg 88%
    21:00 -1°C° 0.3 mm 9 mps 746 mmHg 88%
    22:00 -3°C° 0.3 mm 9 mps 746 mmHg 87%
    23:00 -3°C° 0.4 mm 10 mps 747 mmHg 88%

    Day after tomorrow, 19 January, Saturday

    Time Temperature Precipitation Wind Pressure Humidity
    00:00 -3°C° 0.4 mm 10 mps 747 mmHg 88%
    01:00 -3°C° 0.4 mm 10 mps 747 mmHg 88%
    02:00 -3°C° 0.5 mm 11 mps 747 mmHg 88%
    03:00 -3°C° 0.5 mm 11 mps 748 mmHg 88%
    04:00 -3°C° 0.5 mm 11 mps 748 mmHg 88%
    05:00 -3°C° 0.8 mm 11 mps 748 mmHg 89%
    06:00 -4°C° 0.8 mm 11 mps 749 mmHg 90%
    07:00 -4°C° 0.8 mm 11 mps 749 mmHg 91%
    08:00 -4°C° 0.5 mm 11 mps 749 mmHg 91%
    09:00 -4°C° 0.5 mm 10 mps 750 mmHg 92%
    10:00 -4°C° 0.5 mm 10 mps 750 mmHg 92%
    11:00 -4°C° 0.7 mm 10 mps 751 mmHg 92%
    12:00 -4°C° 0.7 mm 10 mps 751 mmHg 93%
    13:00 -4°C° 0.7 mm 10 mps 751 mmHg 93%
    14:00 -4°C° 0.4 mm 9 mps 751 mmHg 92%
    15:00 -5°C° 0.4 mm 9 mps 751 mmHg 92%
    16:00 -5°C° 0.4 mm 9 mps 752 mmHg 91%
    17:00 -5°C° 0.2 mm 9 mps 752 mmHg 91%
    18:00 -6°C° 0.2 mm 9 mps 753 mmHg 92%
    19:00 -6°C° 0.2 mm 8 mps 753 mmHg 92%
    20:00 -6°C° 0.3 mm 8 mps 753 mmHg 92%
    21:00 -6°C° 0.3 mm 8 mps 753 mmHg 92%
    22:00 -7°C° 0.3 mm 7 mps 754 mmHg 92%
    23:00 -7°C° 0.2 mm 7 mps 754 mmHg 92%

    20 January, Sunday

    Time Temperature Precipitation Wind Pressure Humidity
    00:00 -7°C° 0.2 mm 7 mps 754 mmHg 92%
    01:00 -7°C° 0.2 mm 7 mps 755 mmHg 92%
    02:00 -7°C° 0.1 mm 7 mps 755 mmHg 92%
    03:00 -7°C° 0.1 mm 7 mps 755 mmHg 92%
    04:00 -6°C° 0.1 mm 6 mps 755 mmHg 92%
    05:00 -6°C° 0.1 mm 6 mps 756 mmHg 92%
    06:00 -6°C° 0.1 mm 6 mps 756 mmHg 92%
    07:00 -6°C° 0.1 mm 6 mps 757 mmHg 92%
    08:00 -6°C° 0 mm 6 mps 757 mmHg 91%
    09:00 -8°C° 0 mm 6 mps 758 mmHg 91%
    10:00 -8°C° 0 mm 6 mps 758 mmHg 90%
    11:00 -6°C° 0 mm 6 mps 759 mmHg 90%
    12:00 -6°C° 0 mm 6 mps 759 mmHg 90%
    13:00 -5°C° 0 mm 6 mps 759 mmHg 89%
    14:00 -5°C° 0 mm 6 mps 759 mmHg 90%
    15:00 -5°C° 0 mm 6 mps 759 mmHg 90%
    16:00 -5°C° 0 mm 6 mps 759 mmHg 91%
    17:00 -4°C° 0 mm 5 mps 760 mmHg 91%
    18:00 -3°C° 0 mm 4 mps 761 mmHg 91%
    19:00 -2°C° 0 mm 3 mps 761 mmHg 92%
    20:00 -2°C° 0 mm 3 mps 762 mmHg 92%
    21:00 -2°C° 0 mm 3 mps 762 mmHg 93%
    22:00 -2°C° 0 mm 2 mps 762 mmHg 93%
    23:00 -2°C° 0 mm 3 mps 763 mmHg 94%

    21 January, Monday

    Time Temperature Precipitation Wind Pressure Humidity
    00:00 -2°C° 0 mm 3 mps 763 mmHg 94%
    01:00 -3°C° 0 mm 4 mps 763 mmHg 94%
    02:00 -2°C° 0 mm 3 mps 763 mmHg 94%
    03:00 -4°C° 0 mm 3 mps 763 mmHg 94%
    04:00 -5°C° 0 mm 3 mps 764 mmHg 94%
    05:00 -4°C° 0 mm 2 mps 764 mmHg 94%
    06:00 -4°C° 0 mm 2 mps 764 mmHg 94%
    07:00 -4°C° 0 mm 2 mps 764 mmHg 93%
    08:00 -3°C° 0 mm 2 mps 765 mmHg 93%
    09:00 -1°C° 0 mm 1 mps 765 mmHg 93%
    10:00 0°C° 0 mm 1 mps 765 mmHg 92%
    11:00 0°C° 0 mm 1 mps 765 mmHg 95%
    12:00 +1°C° 0 mm 1 mps 765 mmHg 97%
    13:00 +1°C° 0 mm 1 mps 765 mmHg 99%
    14:00 +1°C° 0 mm 1 mps 765 mmHg 99%
    15:00 +1°C° 0 mm 1 mps 765 mmHg 98%
    16:00 +1°C° 0 mm 1 mps 765 mmHg 98%
    17:00 +1°C° 0 mm 1 mps 765 mmHg 97%
    18:00 +1°C° 0 mm 1 mps 765 mmHg 96%
    19:00 +1°C° 0 mm 1 mps 765 mmHg 95%
    20:00 +1°C° 0 mm 1 mps 765 mmHg 95%
    21:00 -2°C° 0 mm 2 mps 765 mmHg 95%
    22:00 -2°C° 0 mm 2 mps 765 mmHg 94%
    23:00 -2°C° 0 mm 2 mps 765 mmHg 94%

    22 January, Tuesday

    Time Temperature Precipitation Wind Pressure Humidity
    00:00 -2°C° 0 mm 2 mps 764 mmHg 94%
    01:00 -2°C° 0 mm 2 mps 764 mmHg 94%
    02:00 -3°C° 0 mm 2 mps 764 mmHg 93%
    03:00 -3°C° 0 mm 2 mps 764 mmHg 93%
    04:00 -4°C° 0 mm 3 mps 764 mmHg 93%
    05:00 -4°C° 0 mm 3 mps 763 mmHg 93%
    06:00 -4°C° 0 mm 3 mps 763 mmHg 93%
    07:00 -5°C° 0 mm 3 mps 763 mmHg 92%
    08:00 -4°C° 0 mm 3 mps 763 mmHg 91%
    09:00 -2°C° 0 mm 3 mps 763 mmHg 90%
    10:00 -2°C° 0 mm 4 mps 763 mmHg 89%
    11:00 -1°C° 0 mm 3 mps 762 mmHg 90%
    12:00 -1°C° 0 mm 3 mps 762 mmHg 92%
    13:00 -1°C° 0 mm 3 mps 761 mmHg 94%
    14:00 -1°C° 0 mm 3 mps 761 mmHg 93%
    15:00 -1°C° 0 mm 3 mps 761 mmHg 91%
    16:00 -1°C° 0 mm 3 mps 761 mmHg 89%
    17:00 -1°C° 0 mm 3 mps 761 mmHg 89%
    18:00 -2°C° 0 mm 3 mps 761 mmHg 88%
    19:00 -2°C° 0 mm 3 mps 761 mmHg 88%
    20:00 -2°C° 0 mm 3 mps 761 mmHg 87%
    21:00 -2°C° 0 mm 3 mps 761 mmHg 87%
    22:00 -2°C° 0 mm 2 mps 761 mmHg 86%
    23:00 -2°C° 0 mm 2 mps 761 mmHg 85%
    Show more